This is the latest recevied weather packets stored in our database for station/object W9WRP. If no packets are shown the sender has not sent any weather packets the latest 10 day(s).
| Time | Temp. | Humidity | Pressure | Rain* | Wind** | Luminosity | Snow |
|---|---|---|---|---|---|---|---|
| 1787580541 | 30° C | 45% | 1017.9 hPa | 0 mm | - | 42 W/m² | - |
| 1787580240 | 30° C | 44% | 1017.9 hPa | 0 mm | - | 44 W/m² | - |
| 1787579935 | 29.44° C | 44% | 1017.8 hPa | 0 mm | - | 44 W/m² | - |
| 1787579629 | 29.44° C | 44% | 1017.7 hPa | 0 mm | - | 45 W/m² | - |
| 1787579325 | 29.44° C | 45% | 1017.8 hPa | 0 mm | - | 40 W/m² | - |
| 1787579020 | 29.44° C | 44% | 1017.6 hPa | 0 mm | - | 31 W/m² | - |
| 1787578716 | 29.44° C | 44% | 1017.4 hPa | 0 mm | - | 26 W/m² | - |
| 1787578410 | 29.44° C | 44% | 1017.4 hPa | 0 mm | - | 18 W/m² | - |
| 1787578110 | 29.44° C | 44% | 1017.5 hPa | 0 mm | - | 12 W/m² | - |
| 1787577805 | 30° C | 42% | 1017.5 hPa | 0 mm | - | 9 W/m² | - |
| 1787577501 | 30° C | 42% | 1017.6 hPa | 0 mm | - | 6 W/m² | - |
| 1787577198 | 30.56° C | 40% | 1017.2 hPa | 0 mm | - | 5 W/m² | - |
| 1787576894 | 30.56° C | 39% | 1017.1 hPa | 0 mm | - | 3 W/m² | - |
| 1787576593 | 30.56° C | 39% | 1017 hPa | 0 mm | - | 2 W/m² | - |
| 1787576290 | 30.56° C | 40% | 1016.6 hPa | 0 mm | - | 1 W/m² | - |
| 1787575985 | 30° C | 41% | 1016.7 hPa | 0 mm | - | 1 W/m² | - |
| 1787575680 | 30.56° C | 41% | 1016.6 hPa | 0 mm | - | 0 W/m² | - |
| 1787575375 | 30.56° C | 40% | 1016.5 hPa | 0 mm | - | 0 W/m² | - |
| 1787575071 | 30.56° C | 40% | 1016.4 hPa | 0 mm | - | 0 W/m² | - |
| 1787574766 | 31.11° C | 39% | 1016.4 hPa | 0 mm | - | 0 W/m² | - |
| 1787574461 | 31.11° C | 38% | 1016.3 hPa | 0 mm | - | 0 W/m² | - |
| 1787574159 | 31.67° C | 37% | 1016.3 hPa | 0 mm | - | 0 W/m² | - |
| 1787573854 | 31.67° C | 36% | 1016.4 hPa | 0 mm | - | 0 W/m² | - |
| 1787573553 | 31.11° C | 37% | 1016.3 hPa | 0 mm | - | 0 W/m² | - |
| 1787573250 | 30.56° C | 40% | 1016.3 hPa | 0 mm | - | 0 W/m² | - |
* Rain latest hour (hover to see other rain measurements)
** Current wind speed in m/s (hover to see current wind gust speed)